Regional Weather Roundup
Issued by NWS

Home | Current Version | Previous Version | Graphics & Text | Print | Product List | Glossary On
Versions: 1 2 3 4 5 6 7 8 9 10 11 12 13 14 15 16 17 18 19 20 21 22 23 24 25 26 27 28 29 30 31 32 33 34 35 36 37 38 39 40 41 42 43 44 45 46 47 48 49 50
000
ASUS43 KDTX 152010
RWRMI
MICHIGAN HOURLY REGIONAL WEATHER ROUNDUP
NATIONAL WEATHER SERVICE DETROIT/PONTIAC MI
400 PM EDT TUE APR 15 2014

NOTE: "FAIR" INDICATES FEW OR NO CLOUDS BELOW 12,000 FEET WITH NO
SIGNIFICANT WEATHER AND/OR OBSTRUCTION TO VISIBILITY.

MIZ047>049-052>055-059>063-066>070-074>076-081>083-152100-
SOUTHEAST LOWER MICHIGAN

CITY           SKY/WX    TMP DP  RH WIND       PRES   REMARKS
ADRIAN         PTSUNNY   33  17  51 NW15      30.07R WCI  23
ALMA           MOSUNNY   32  12  44 NW15      30.06S WCI  21
ANN ARBOR      MOSUNNY   32  17  54 NW10      30.04R WCI  24
BAD AXE        CLOUDY    28  12  51 NW16G24   30.02R WCI  16
CARO           CLOUDY    32  13  45 NW14G23   30.03R WCI  22
DETROIT CITY   CLOUDY    34  14  43 NW15G23   30.03R WCI  24
DETROIT        FLURRIES  33  18  53 W16       30.05R WCI  23
FLINT          FLURRIES  31  15  52 NW14      30.04R WCI  21
GROSSE ILE     CLOUDY    32  18  55 NW15      30.03S WCI  22
HILLSDALE      PTSUNNY   33  14  46 NW15G23   30.04S WCI  22
HOWELL         MOSUNNY   30  20  68 W15G21    30.04R WCI  19

CITY           SKY/WX    TMP DP  RH WIND       PRES   REMARKS
JACKSON        CLOUDY    31  12  45 NW14G23   30.05R WCI  21
LAMBERTVILLE   CLOUDY    34  18  51 NW12G20   30.07R WCI  25
LANSING        CLOUDY    31  14  49 W18G24    30.06R WCI  19
LAPEER         CLOUDY    30  16  56 NW9G17    30.02R WCI  22
MASON          CLOUDY    32  15  50 W16G23    30.05R WCI  21
MONROE         PTSUNNY   32  19  59 NW13G23   30.04S WCI  22
MT. CLEMENS    FLURRIES  32  17  55 NW14      30.01R WCI  22
PONTIAC        FLURRIES  31  14  49 W21G26    30.01R WCI  18
PORT HOPE        N/A     28  17  63 NW9G21    30.00R WCI  19
PORT HURON     CLOUDY    30  18  59 W13G22    30.02R WCI  20
TRI CITIES     PTSUNNY   34  15  46 NW16      30.04R WCI  24
TROY           PTSUNNY   32  16  51 W18G26    30.04R WCI  21
SAGINAW HB     PTSUNNY   32  10  40 W16G26    30.04R WCI  21
YPSILANTI      CLOUDY    33  18  53 W15       30.04R WCI  23
$$
MIZ043>046-050>051-056>058-064>065-071>073-077>080-152100-
SOUTHWEST LOWER MICHIGAN

CITY           SKY/WX    TMP DP  RH WIND       PRES   REMARKS
BATTLE CREEK   CLOUDY    31  12  45 NW20G25   30.08R WCI  19
BENTON HARBOR  SUNNY     31  13  47 W12G20    30.17R WCI  22
BIG RAPIDS     CLOUDY    29   7  38 NW15G23   30.06R WCI  18
COLDWATER      PTSUNNY   34  11  39 NW16G24   30.07S WCI  23
FREMONT        MOCLDY    31  10  41 NW17G23   30.10S WCI  20
HOLLAND        SUNNY     33  16  49 NW16      30.15R WCI  23
GRAND RAPIDS   PTSUNNY   33  11  39 NW15G23   30.09R WCI  23
IONIA          CLOUDY    32  11  42 NW15G25   30.07R WCI  21
KALAMAZOO      MOSUNNY   34   6  31 NW22      30.10R WCI  22
LUDINGTON      SUNNY     29  13  51 W10G16    30.12F WCI  20
MARSHALL       CLOUDY    34  14  44 NW17G25   30.06S WCI  23
MOUNT PLEASANT PTSUNNY   32  12  43 NW14G29   30.06R WCI  22
MUSKEGON       MOSUNNY   33  10  38 W13G20    30.13S WCI  24
SOUTH HAVEN    SUNNY     32  12  43 N13G22    30.16R WCI  22
$$
MIZ016>042-152100-
NORTHERN LOWER MICHIGAN

CITY           SKY/WX    TMP DP  RH WIND       PRES   REMARKS
ALPENA         CLOUDY    25   9  50 NW14G21   30.01R WCI  13
BEAVER ISLAND  PTSUNNY   26  12  55 NW9       30.06S WCI  17
BELLAIRE       CLOUDY    28  13  53 NW10G18   30.09R WCI  18
CADILLAC       CLOUDY    25  11  57 NW12G18   30.04R WCI  14
CHARLEVOIX     SUNNY     29  17  61 W16       30.11R WCI  17
FRANKFORT      SUNNY     29  13  52 W7        30.11R WCI  22
GAYLORD        CLOUDY    24   9  52 NW7       30.01R WCI  16
GRAYLING       CLOUDY    25   8  48 NW20      30.04R WCI  10
HARBOR SPRINGS CLOUDY    27  14  60 W12G23    30.06R WCI  16
HOUGHTON LAKE  PTSUNNY   25   8  48 NW12G25   30.04R WCI  14
MANISTEE       SUNNY     28   9  43 W8G17     30.12S WCI  20
OSCODA         CLOUDY    31   9  40 NW16G25   30.01R WCI  19
PELLSTON       PTSUNNY   27  12  53 NW16G35   30.06R WCI  15
ROGERS CITY    PTSUNNY   25  12  59 NW14G28   30.03R WCI  13
TRAVERSE CITY  PTSUNNY   28  10  46 NW12      30.08S WCI  18
$$
MIZ007>008-015-152100-
EASTERN UPPER MICHIGAN

CITY           SKY/WX    TMP DP  RH WIND       PRES   REMARKS
KINROSS        PTSUNNY   21  10  63 NW25      30.01R WCI   4
MACKINAC ISLAN CLOUDY    25  11  55 NW13G20   30.03R WCI  13
NEWBERRY       CLOUDY    22  10  60 W9G21     30.03S WCI  12
S. S. MARIE    SUNNY     20   5  52 NW16G32   30.02R WCI   6
MUNISING         N/A     25  10  53 N10G17    30.07R WCI  15
$$
MIZ004>006-011>014-085-152100-
CENTRAL UPPER MICHIGAN

CITY           SKY/WX    TMP DP  RH WIND       PRES   REMARKS
MANISTIQUE     PTSUNNY   28  15  58 W10       30.05S WCI  18
ESCANABA       CLOUDY    27  16  63 W6        30.04S WCI  20
MENOMINEE      PTSUNNY   28  21  74 W5        30.06F WCI  23
SAWYER-GWINN   LGT SNOW  21  16  79 NE10      30.03R VSB 3/4 WCI  10
$$
MIZ001>003-009>011-084-152100-
WESTERN UPPER MICHIGAN

CITY           SKY/WX    TMP DP  RH WIND       PRES   REMARKS
IRON MOUNTAIN  MOSUNNY   29  15  56 CALM      30.01F
HOUGHTON       CLOUDY    22   7  52 NW12      30.04S WCI  10
COPPER HARBOR    N/A     24  10  55 N12       30.07F WCI  13
IRONWOOD       MOSUNNY   25   7  46 W7        30.03S WCI  17
$$

ABBREVIATIONS USED IN REMARKS
   TC - TEMPERATURE IN CELSIUS
  WCI - WIND CHILL INDEX
   HX - HEAT INDEX
  VSB - VISIBILITY




USA.gov is the U.S. government's official web portal to all federal, state and local government web resources and services.